Location: Unspecified
(42.2600°N, 0.0000°E)
Time: 21:44:21
(UTC+00:00)

ISS - Pass Details

Date: 03 June 2019
Orbit: 408 x 418 km, 51.6° (Epoch: 19 June)

Event Time Altitude Azimuth Distance (km) Brightness Sun altitude
Rises 22:00:55 0° 288° (WNW) 2,355 0.8 -19.9°
Reaches altitude 10° 22:03:45 10° 262° (W) 1,490 -0.7 -20.2°
Enters shadow 22:04:55 13° 242° (WSW) 1,305 -1.3 -20.3°
